| time (UTC) | temp F | wind direction | speed MPH | gust MPH | rain 1hr in | rain 24hr in | rain mn in | humidity % | barometer mb |
| 20260507122615 | 73 | 202 | 5.0 | 11.0 | 0.00 | 0.37 | 0.01 | 53 | 1012.7 |
| 20260507122214 | 73 | 208 | 6.0 | 11.0 | 0.00 | 0.38 | 0.01 | 52 | 1012.6 |
| 20260507121603 | 73 | 203 | 6.0 | 13.0 | 0.00 | 0.38 | 0.01 | 54 | 1012.9 |
| 20260507121203 | 73 | 200 | 6.0 | 13.0 | 0.00 | 0.38 | 0.01 | 55 | 1012.6 |
| 20260507120803 | 74 | 201 | 5.0 | 11.0 | 0.00 | 0.38 | 0.01 | 50 | 1012.8 |
| 20260507120403 | 73 | 197 | 6.0 | 10.0 | 0.00 | 0.38 | 0.01 | 54 | 1012.7 |
| 20260507120004 | 72 | 213 | 6.0 | 14.0 | 0.00 | 0.38 | 0.01 | 55 | 1012.9 |
| 20260507115603 | 72 | 214 | 7.0 | 14.0 | 0.00 | 0.38 | 0.01 | 55 | 1012.9 |
| 20260507115415 | 72 | 209 | 7.0 | 14.0 | 0.00 | 0.38 | 0.01 | 54 | 1012.8 |
| 20260507114803 | 72 | 209 | 6.0 | 9.0 | 0.00 | 0.38 | 0.01 | 52 | 1012.7 |
| 20260507114403 | 71 | 217 | 6.0 | 14.0 | 0.00 | 0.38 | 0.01 | 54 | 1012.7 |
| 20260507114003 | 72 | 224 | 6.0 | 14.0 | 0.00 | 0.38 | 0.01 | 52 | 1012.9 |
| 20260507113603 | 71 | 237 | 6.0 | 11.0 | 0.00 | 0.38 | 0.01 | 55 | 1012.9 |
| 20260507113417 | 71 | 235 | 7.0 | 11.0 | 0.00 | 0.38 | 0.01 | 54 | 1012.8 |
| 20260507112803 | 71 | 221 | 5.0 | 11.0 | 0.00 | 0.38 | 0.01 | 55 | 1012.8 |
| 20260507112403 | 71 | 221 | 4.0 | 10.0 | 0.00 | 0.38 | 0.01 | 56 | 1012.9 |
| 20260507112003 | 71 | 219 | 5.0 | 9.0 | 0.00 | 0.38 | 0.01 | 54 | 1013.1 |
| 20260507111814 | 71 | 214 | 5.0 | 9.0 | 0.00 | 0.38 | 0.01 | 57 | 1013.0 |
| 20260507111203 | 71 | 211 | 6.0 | 13.0 | 0.00 | 0.38 | 0.01 | 54 | 1013.2 |
| 20260507110803 | 71 | 219 | 5.0 | 13.0 | 0.00 | 0.38 | 0.01 | 54 | 1013.2 |
| 20260507110403 | 71 | 218 | 4.0 | 8.0 | 0.00 | 0.38 | 0.01 | 59 | 1013.2 |
| 20260507110003 | 70 | 201 | 5.0 | 10.0 | 0.00 | 0.38 | 0.01 | 59 | 1013.1 |
| 20260507105603 | 70 | 200 | 5.0 | 10.0 | 0.00 | 0.38 | 0.01 | 59 | 1013.4 |
| 20260507105203 | 70 | 202 | 5.0 | 10.0 | 0.00 | 0.38 | 0.01 | 58 | 1013.4 |
| 20260507104803 | 70 | 228 | 5.0 | 13.0 | 0.00 | 0.38 | 0.01 | 61 | 1013.5 |
| 20260507104403 | 70 | 243 | 4.0 | 13.0 | 0.00 | 0.38 | 0.01 | 61 | 1013.6 |
| 20260507104003 | 69 | 211 | 5.0 | 13.0 | 0.00 | 0.38 | 0.01 | 60 | 1013.5 |
| 20260507103603 | 70 | 194 | 4.0 | 8.0 | 0.00 | 0.38 | 0.01 | 63 | 1013.6 |
| 20260507103203 | 70 | 225 | 4.0 | 6.0 | 0.00 | 0.38 | 0.01 | 62 | 1013.6 |
| 20260507102803 | 70 | 239 | 5.0 | 10.0 | 0.00 | 0.38 | 0.01 | 60 | 1013.6 |
| 20260507102403 | 69 | 245 | 6.0 | 10.0 | 0.00 | 0.38 | 0.01 | 62 | 1013.7 |
| 20260507102003 | 69 | 240 | 7.0 | 13.0 | 0.00 | 0.38 | 0.01 | 64 | 1013.8 |
| 20260507101603 | 70 | 225 | 7.0 | 13.0 | 0.00 | 0.38 | 0.01 | 60 | 1013.8 |
| 20260507101204 | 70 | 222 | 5.0 | 13.0 | 0.00 | 0.38 | 0.01 | 61 | 1013.8 |
| 20260507100803 | 70 | 210 | 4.0 | 9.0 | 0.00 | 0.38 | 0.01 | 61 | 1013.7 |
| 20260507100403 | 70 | 209 | 4.0 | 9.0 | 0.00 | 0.38 | 0.01 | 61 | 1013.7 |
| 20260507095816 | 69 | 221 | 5.0 | 8.0 | 0.00 | 0.38 | 0.01 | 60 | 1013.9 |
| 20260507095203 | 69 | 221 | 6.0 | 10.0 | 0.00 | 0.38 | 0.01 | 60 | 1013.7 |
| 20260507094803 | 69 | 215 | 5.0 | 10.0 | 0.00 | 0.38 | 0.01 | 56 | 1013.9 |
| 20260507094403 | 70 | 225 | 5.0 | 10.0 | 0.00 | 0.38 | 0.01 | 57 | 1013.8 |
| 20260507094003 | 70 | 226 | 4.0 | 8.0 | 0.00 | 0.38 | 0.01 | 57 | 1013.7 |
| 20260507093812 | 70 | 219 | 4.0 | 8.0 | 0.00 | 0.38 | 0.01 | 55 | 1013.7 |
| 20260507093203 | 69 | 229 | 4.0 | 9.0 | 0.00 | 0.38 | 0.01 | 57 | 1013.6 |
| 20260507092803 | 70 | 243 | 2.0 | 9.0 | 0.00 | 0.38 | 0.01 | 56 | 1013.6 |
| 20260507092403 | 69 | 261 | 1.0 | 6.0 | 0.00 | 0.38 | 0.01 | 61 | 1013.6 |
| 20260507092003 | 69 | 245 | 3.0 | 10.0 | 0.00 | 0.39 | 0.01 | 63 | 1013.7 |
| 20260507091603 | 68 | 225 | 4.0 | 10.0 | 0.00 | 0.39 | 0.01 | 63 | 1013.4 |
| 20260507091203 | 69 | 220 | 3.0 | 9.0 | 0.00 | 0.39 | 0.01 | 67 | 1013.6 |
| 20260507090803 | 69 | 229 | 2.0 | 7.0 | 0.00 | 0.40 | 0.01 | 67 | 1013.4 |
| 20260507090403 | 69 | 226 | 3.0 | 6.0 | 0.00 | 0.40 | 0.01 | 65 | 1013.7 |
| 20260507090004 | 68 | 180 | 3.0 | 6.0 | 0.00 | 0.41 | 0.01 | 67 | 1013.7 |
| 20260507085603 | 67 | 175 | 3.0 | 7.0 | 0.00 | 0.41 | 0.01 | 76 | 1013.6 |
| 20260507085203 | 66 | 191 | 3.0 | 7.0 | 0.00 | 0.41 | 0.01 | 74 | 1013.6 |
| 20260507084803 | 65 | 206 | 3.0 | 7.0 | 0.00 | 0.41 | 0.01 | 76 | 1013.5 |
| 20260507084403 | 65 | 170 | 3.0 | 7.0 | 0.00 | 0.41 | 0.01 | 79 | 1013.5 |
| 20260507084003 | 66 | 157 | 3.0 | 7.0 | 0.00 | 0.41 | 0.01 | 77 | 1013.5 |
| 20260507083603 | 66 | 172 | 4.0 | 9.0 | 0.00 | 0.41 | 0.01 | 77 | 1013.5 |
| 20260507083413 | 66 | 167 | 4.0 | 9.0 | 0.00 | 0.41 | 0.01 | 78 | 1013.5 |
| 20260507082803 | 66 | 159 | 4.0 | 9.0 | 0.00 | 0.41 | 0.01 | 80 | 1013.5 |
| 20260507082403 | 66 | 149 | 3.0 | 8.0 | 0.00 | 0.41 | 0.01 | 78 | 1013.4 |
| 20260507082216 | 66 | 157 | 2.0 | 6.0 | 0.00 | 0.41 | 0.01 | 78 | 1013.3 |
| 20260507081603 | 65 | 179 | 2.0 | 6.0 | 0.00 | 0.41 | 0.01 | 79 | 1013.3 |
| 20260507081203 | 65 | 200 | 2.0 | 4.0 | 0.00 | 0.41 | 0.01 | 79 | 1013.3 |
| 20260507081014 | 65 | 218 | 2.0 | 3.0 | 0.00 | 0.41 | 0.01 | 80 | 1013.5 |
| 20260507080403 | 65 | 224 | 2.0 | 4.0 | 0.00 | 0.41 | 0.01 | 74 | 1013.5 |
| 20260507080004 | 68 | 202 | 2.0 | 4.0 | 0.00 | 0.41 | 0.01 | 74 | 1013.3 |
| 20260507075817 | 68 | 183 | 1.0 | 4.0 | 0.00 | 0.41 | 0.01 | 76 | 1013.6 |
| 20260507075203 | 67 | 108 | 1.0 | 4.0 | 0.00 | 0.41 | 0.01 | 76 | 1013.3 |
| 20260507074803 | 66 | 110 | 1.0 | 2.0 | 0.00 | 0.41 | 0.01 | 77 | 1013.4 |
| 20260507074403 | 66 | 119 | 1.0 | 2.0 | 0.00 | 0.41 | 0.01 | 79 | 1013.4 |
| 20260507074003 | 65 | 138 | 1.0 | 2.0 | 0.00 | 0.41 | 0.01 | 78 | 1013.3 |
| 20260507073603 | 65 | 151 | 0.0 | 2.0 | 0.00 | 0.41 | 0.01 | 80 | 1013.3 |
| 20260507073203 | 64 | 253 | 0.0 | 1.0 | 0.00 | 0.41 | 0.01 | 82 | 1013.3 |
| 20260507072803 | 63 | 256 | 0.0 | 1.0 | 0.00 | 0.41 | 0.01 | 85 | 1013.3 |
| 20260507072403 | 63 | 254 | 0.0 | 1.0 | 0.00 | 0.41 | 0.01 | 85 | 1013.2 |
| 20260507072216 | 63 | 253 | 1.0 | 2.0 | 0.00 | 0.41 | 0.01 | 85 | 1013.2 |
| 20260507071604 | 63 | 253 | 1.0 | 3.0 | 0.00 | 0.41 | 0.01 | 85 | 1013.3 |
| 20260507071203 | 63 | 291 | 1.0 | 3.0 | 0.00 | 0.41 | 0.01 | 85 | 1013.3 |
| 20260507070803 | 63 | 325 | 1.0 | 2.0 | 0.00 | 0.41 | 0.01 | 87 | 1013.2 |
| 20260507070403 | 62 | 304 | 1.0 | 2.0 | 0.00 | 0.41 | 0.01 | 87 | 1013.2 |
| 20260507070004 | 62 | 276 | 0.0 | 1.0 | 0.00 | 0.41 | 0.01 | 87 | 1013.1 |
| 20260507065818 | 62 | 274 | 0.0 | 1.0 | 0.00 | 0.41 | 0.01 | 88 | 1013.1 |
| 20260507065203 | 62 | 269 | 1.0 | 2.0 | 0.00 | 0.41 | 0.01 | 90 | 1013.0 |
| 20260507065016 | 62 | 267 | 1.0 | 2.0 | 0.00 | 0.41 | 0.01 | 91 | 1013.1 |
| 20260507064403 | 62 | 259 | 1.0 | 2.0 | 0.00 | 0.41 | 0.01 | 90 | 1013.0 |
| 20260507064003 | 63 | 253 | 0.0 | 2.0 | 0.00 | 0.41 | 0.01 | 91 | 1012.9 |
| 20260507063603 | 62 | 0 | 0.0 | 0.0 | 0.00 | 0.42 | 0.01 | 95 | 1013.0 |
| 20260507063203 | 61 | 270 | 0.0 | 2.0 | 0.00 | 0.42 | 0.01 | 96 | 1012.8 |
| 20260507062803 | 60 | 251 | 0.0 | 2.0 | 0.00 | 0.42 | 0.01 | 97 | 1012.8 |
| 20260507062403 | 59 | 248 | 1.0 | 3.0 | 0.00 | 0.42 | 0.01 | 96 | 1012.8 |
| 20260507062003 | 59 | 243 | 2.0 | 3.0 | 0.00 | 0.42 | 0.01 | 96 | 1012.9 |
| 20260507061816 | 60 | 244 | 2.0 | 3.0 | 0.00 | 0.42 | 0.01 | 96 | 1012.9 |
| 20260507061203 | 59 | 252 | 3.0 | 4.0 | 0.00 | 0.42 | 0.01 | 97 | 1013.0 |
| 20260507060803 | 59 | 258 | 3.0 | 4.0 | 0.00 | 0.42 | 0.01 | 97 | 1012.8 |
| 20260507060403 | 59 | 259 | 3.0 | 4.0 | 0.00 | 0.42 | 0.01 | 97 | 1012.8 |
| 20260507060214 | 59 | 258 | 3.0 | 4.0 | 0.00 | 0.42 | 0.01 | 97 | 1012.9 |
| 20260507055603 | 60 | 266 | 1.0 | 4.0 | 0.00 | 0.42 | 0.01 | 97 | 1012.8 |
| 20260507055203 | 60 | 278 | 0.0 | 2.0 | 0.00 | 0.42 | 0.01 | 97 | 1012.9 |
| 20260507055017 | 60 | 285 | 0.0 | 1.0 | 0.00 | 0.42 | 0.01 | 98 | 1012.7 |
| 20260507054616 | 60 | 286 | 0.0 | 1.0 | 0.00 | 0.42 | 0.01 | 97 | 1012.7 |
| 20260507054004 | 60 | 286 | 0.0 | 1.0 | 0.00 | 0.42 | 0.01 | 98 | 1012.6 |
| 20260507053815 | 60 | 286 | 0.0 | 1.0 | 0.00 | 0.42 | 0.01 | 98 | 1012.4 |
| 20260507053204 | 59 | 0 | 0.0 | 0.0 | 0.00 | 0.42 | 0.01 | 98 | 1012.4 |
| 20260507053014 | 59 | 0 | 0.0 | 0.0 | 0.00 | 0.42 | 0.01 | 98 | 1012.3 |
| 20260507052403 | 59 | 0 | 0.0 | 0.0 | 0.00 | 0.42 | 0.01 | 98 | 1012.1 |
| 20260507052003 | 58 | 0 | 0.0 | 0.0 | 0.00 | 0.42 | 0.01 | 98 | 1012.3 |
| 20260507051817 | 58 | 0 | 0.0 | 0.0 | 0.00 | 0.42 | 0.01 | 98 | 1012.3 |
| 20260507051416 | 58 | 271 | 0.0 | 0.0 | 0.00 | 0.43 | 0.01 | 98 | 1012.3 |
| 20260507051016 | 57 | 270 | 0.0 | 2.0 | 0.00 | 0.43 | 0.01 | 98 | 1012.1 |
| 20260507050403 | 57 | 270 | 0.0 | 2.0 | 0.00 | 0.43 | 0.01 | 98 | 1012.2 |
| 20260507050003 | 57 | 0 | 0.0 | 0.0 | 0.00 | 0.43 | 0.01 | 98 | 1012.2 |
| 20260507045814 | 57 | 0 | 0.0 | 0.0 | 0.00 | 0.43 | 0.01 | 98 | 1012.1 |
| 20260507045203 | 57 | 0 | 0.0 | 0.0 | 0.00 | 0.43 | 0.01 | 98 | 1012.1 |
| 20260507044803 | 57 | 0 | 0.0 | 0.0 | 0.00 | 0.43 | 0.01 | 98 | 1011.9 |
| 20260507044403 | 57 | 0 | 0.0 | 0.0 | 0.00 | 0.43 | 0.01 | 98 | 1012.1 |
| 20260507044216 | 57 | 0 | 0.0 | 0.0 | 0.00 | 0.43 | 0.01 | 98 | 1012.0 |
| 20260507043603 | 56 | 0 | 0.0 | 0.0 | 0.00 | 0.43 | 0.01 | 98 | 1011.8 |
| 20260507043203 | 56 | 0 | 0.0 | 0.0 | 0.00 | 0.43 | 0.01 | 98 | 1011.8 |
| 20260507042803 | 56 | 278 | 0.0 | 1.0 | 0.00 | 0.43 | 0.01 | 98 | 1011.7 |
| 20260507042403 | 56 | 278 | 0.0 | 1.0 | 0.00 | 0.43 | 0.01 | 98 | 1011.7 |
| 20260507042004 | 56 | 278 | 0.0 | 1.0 | 0.00 | 0.43 | 0.01 | 98 | 1011.7 |
| 20260507041603 | 56 | 0 | 0.0 | 0.0 | 0.00 | 0.43 | 0.01 | 98 | 1011.7 |
| 20260507041203 | 56 | 278 | 0.0 | 1.0 | 0.00 | 0.43 | 0.01 | 98 | 1011.5 |
| 20260507041016 | 56 | 278 | 0.0 | 1.0 | 0.00 | 0.43 | 0.01 | 98 | 1011.7 |
| 20260507040616 | 56 | 278 | 0.0 | 1.0 | 0.00 | 0.43 | 0.01 | 98 | 1011.6 |
| 20260507040003 | 55 | 0 | 0.0 | 0.0 | 0.00 | 0.43 | 0.01 | 98 | 1011.6 |
| 20260507035603 | 55 | 0 | 0.0 | 0.0 | 0.00 | 0.43 | 0.01 | 98 | 1011.4 |
| 20260507035414 | 55 | 0 | 0.0 | 0.0 | 0.00 | 0.43 | 0.01 | 98 | 1011.5 |
| 20260507034803 | 54 | 0 | 0.0 | 0.0 | 0.01 | 0.43 | 0.01 | 98 | 1011.5 |
| 20260507034404 | 54 | 0 | 0.0 | 0.0 | 0.01 | 0.43 | 0.01 | 97 | 1011.5 |
| 20260507034003 | 54 | 0 | 0.0 | 0.0 | 0.01 | 0.43 | 0.01 | 97 | 1011.5 |
| 20260507033603 | 54 | 0 | 0.0 | 0.0 | 0.01 | 0.44 | 0.01 | 97 | 1011.5 |
| 20260507033203 | 54 | 0 | 0.0 | 0.0 | 0.01 | 0.44 | 0.01 | 97 | 1011.5 |
| 20260507032803 | 54 | 0 | 0.0 | 0.0 | 0.01 | 0.45 | 0.01 | 97 | 1011.2 |
| 20260507032403 | 54 | 0 | 0.0 | 0.0 | 0.01 | 0.46 | 0.01 | 97 | 1011.3 |
| 20260507032003 | 53 | 0 | 0.0 | 0.0 | 0.01 | 0.47 | 0.01 | 97 | 1011.6 |
| 20260507031813 | 53 | 0 | 0.0 | 0.0 | 0.01 | 0.48 | 0.01 | 97 | 1011.5 |
| 20260507031203 | 53 | 0 | 0.0 | 0.0 | 0.01 | 0.51 | 0.01 | 97 | 1011.4 |
| 20260507030803 | 53 | 0 | 0.0 | 0.0 | 0.01 | 0.53 | 0.01 | 97 | 1011.4 |
| 20260507030616 | 53 | 0 | 0.0 | 0.0 | 0.01 | 0.53 | 0.01 | 97 | 1011.3 |
| 20260507030003 | 54 | 0 | 0.0 | 0.0 | 0.01 | 0.54 | 0.01 | 97 | 1011.2 |
| 20260507025815 | 54 | 0 | 0.0 | 0.0 | 0.01 | 0.54 | 0.01 | 97 | 1011.4 |
| 20260507025414 | 54 | 0 | 0.0 | 0.0 | 0.01 | 0.54 | 0.01 | 97 | 1011.2 |
| 20260507024803 | 54 | 0 | 0.0 | 0.0 | 0.00 | 0.53 | 0.00 | 97 | 1011.3 |
| 20260507024403 | 54 | 0 | 0.0 | 0.0 | 0.00 | 0.53 | 0.00 | 97 | 1011.3 |
| 20260507024213 | 53 | 0 | 0.0 | 0.0 | 0.00 | 0.53 | 0.00 | 97 | 1011.4 |
| 20260507023603 | 53 | 0 | 0.0 | 0.0 | 0.00 | 0.53 | 0.00 | 97 | 1011.2 |
| 20260507023203 | 54 | 0 | 0.0 | 0.0 | 0.00 | 0.53 | 0.00 | 97 | 1011.2 |
| 20260507022803 | 54 | 0 | 0.0 | 0.0 | 0.00 | 0.53 | 0.00 | 97 | 1011.2 |
| 20260507022403 | 54 | 0 | 0.0 | 0.0 | 0.00 | 0.53 | 0.00 | 97 | 1011.2 |
| 20260507022003 | 54 | 0 | 0.0 | 0.0 | 0.00 | 0.53 | 0.00 | 97 | 1011.2 |
| 20260507021603 | 54 | 0 | 0.0 | 0.0 | 0.00 | 0.53 | 0.00 | 97 | 1011.4 |
| 20260507021203 | 54 | 0 | 0.0 | 0.0 | 0.00 | 0.53 | 0.00 | 97 | 1011.1 |
| 20260507021012 | 54 | 0 | 0.0 | 0.0 | 0.00 | 0.53 | 0.00 | 97 | 1011.2 |
| 20260507020403 | 54 | 0 | 0.0 | 0.0 | 0.00 | 0.53 | 0.00 | 97 | 1011.2 |
| 20260507020003 | 54 | 0 | 0.0 | 0.0 | 0.00 | 0.53 | 0.00 | 97 | 1011.3 |
| 20260507015603 | 55 | 0 | 0.0 | 0.0 | 0.00 | 0.53 | 0.00 | 97 | 1011.1 |
| 20260507015203 | 55 | 0 | 0.0 | 0.0 | 0.00 | 0.53 | 0.00 | 97 | 1011.2 |
| 20260507014803 | 55 | 278 | 0.0 | 1.0 | 0.00 | 0.53 | 0.00 | 97 | 1011.1 |
| 20260507014403 | 55 | 278 | 0.0 | 2.0 | 0.00 | 0.53 | 0.00 | 97 | 1011.0 |
| 20260507014003 | 55 | 278 | 0.0 | 2.0 | 0.00 | 0.53 | 0.00 | 97 | 1011.2 |
| 20260507013603 | 55 | 278 | 0.0 | 1.0 | 0.00 | 0.53 | 0.00 | 97 | 1011.0 |
| 20260507013203 | 54 | 0 | 0.0 | 0.0 | 0.00 | 0.53 | 0.00 | 97 | 1010.9 |
| 20260507013016 | 54 | 0 | 0.0 | 0.0 | 0.00 | 0.53 | 0.00 | 97 | 1011.1 |
| 20260507012403 | 55 | 0 | 0.0 | 0.0 | 0.00 | 0.53 | 0.00 | 97 | 1011.1 |
| 20260507012003 | 55 | 0 | 0.0 | 0.0 | 0.00 | 0.53 | 0.00 | 97 | 1011.0 |
| 20260507011603 | 55 | 0 | 0.0 | 0.0 | 0.00 | 0.53 | 0.00 | 97 | 1010.9 |
| 20260507011203 | 55 | 0 | 0.0 | 0.0 | 0.00 | 0.53 | 0.00 | 97 | 1011.1 |
| 20260507010803 | 56 | 0 | 0.0 | 0.0 | 0.00 | 0.53 | 0.00 | 97 | 1011.1 |
| 20260507010403 | 56 | 0 | 0.0 | 0.0 | 0.00 | 0.53 | 0.00 | 97 | 1011.2 |
| 20260507010003 | 56 | 0 | 0.0 | 0.0 | 0.00 | 0.53 | 0.00 | 97 | 1011.2 |
| 20260507005603 | 56 | 279 | 0.0 | 1.0 | 0.00 | 0.53 | 0.00 | 97 | 1011.3 |
| 20260507005203 | 56 | 279 | 0.0 | 1.0 | 0.00 | 0.53 | 0.00 | 97 | 1011.1 |
| 20260507004803 | 56 | 279 | 0.0 | 2.0 | 0.00 | 0.53 | 0.00 | 97 | 1011.3 |
| 20260507004403 | 56 | 279 | 0.0 | 2.0 | 0.00 | 0.53 | 0.00 | 97 | 1011.1 |
| 20260507004003 | 56 | 279 | 0.0 | 2.0 | 0.00 | 0.53 | 0.00 | 97 | 1011.1 |
| 20260507003603 | 56 | 0 | 0.0 | 0.0 | 0.00 | 0.53 | 0.00 | 97 | 1011.0 |
| 20260507003203 | 56 | 0 | 0.0 | 0.0 | 0.00 | 0.53 | 0.00 | 97 | 1011.2 |
| 20260507002803 | 56 | 0 | 0.0 | 0.0 | 0.00 | 0.53 | 0.00 | 97 | 1011.2 |
| 20260507002403 | 56 | 0 | 0.0 | 0.0 | 0.00 | 0.53 | 0.00 | 97 | 1011.1 |
| 20260507002003 | 57 | 0 | 0.0 | 0.0 | 0.00 | 0.53 | 0.00 | 97 | 1011.1 |
| 20260507001603 | 57 | 0 | 0.0 | 0.0 | 0.00 | 0.53 | 0.00 | 97 | 1011.0 |
| 20260507001203 | 57 | 0 | 0.0 | 0.0 | 0.00 | 0.53 | 0.00 | 97 | 1010.9 |
| 20260507000803 | 57 | 0 | 0.0 | 0.0 | 0.00 | 0.53 | 0.00 | 97 | 1011.0 |
| 20260507000405 | 56 | 0 | 0.0 | 0.0 | 0.00 | 0.53 | 0.00 | 97 | 1011.0 |
| 20260507000004 | 56 | 0 | 0.0 | 0.0 | 0.00 | 0.53 | 0.00 | 97 | 1011.1 |
| 20260506235817 | 57 | 0 | 0.0 | 0.0 | 0.00 | 0.53 | 0.00 | 97 | 1011.1 |
| 20260506235416 | 57 | 0 | 0.0 | 0.0 | 0.00 | 0.53 | 0.00 | 97 | 1011.2 |
| 20260506234803 | 57 | 0 | 0.0 | 0.0 | 0.00 | 0.53 | 0.00 | 96 | 1011.1 |
| 20260506234403 | 57 | 0 | 0.0 | 0.0 | 0.00 | 0.53 | 0.00 | 96 | 1011.3 |
| 20260506234003 | 57 | 280 | 0.0 | 2.0 | 0.00 | 0.53 | 0.00 | 96 | 1011.0 |
| 20260506233814 | 57 | 281 | 0.0 | 2.0 | 0.00 | 0.53 | 0.00 | 96 | 1011.1 |
| 20260506233203 | 57 | 282 | 0.0 | 2.0 | 0.00 | 0.53 | 0.00 | 96 | 1011.1 |
| 20260506233013 | 57 | 282 | 0.0 | 2.0 | 0.00 | 0.53 | 0.00 | 96 | 1011.2 |
| 20260506232403 | 57 | 0 | 0.0 | 0.0 | 0.00 | 0.53 | 0.00 | 96 | 1011.2 |
| 20260506232003 | 57 | 0 | 0.0 | 0.0 | 0.00 | 0.53 | 0.00 | 96 | 1011.2 |
| 20260506231816 | 58 | 0 | 0.0 | 0.0 | 0.00 | 0.53 | 0.00 | 96 | 1011.3 |
| 20260506231415 | 58 | 0 | 0.0 | 0.0 | 0.00 | 0.53 | 0.00 | 96 | 1011.1 |
| 20260506230803 | 57 | 0 | 0.0 | 0.0 | 0.00 | 0.53 | 0.00 | 96 | 1011.1 |
| 20260506230403 | 57 | 0 | 0.0 | 0.0 | 0.00 | 0.53 | 0.00 | 96 | 1011.3 |
| 20260506230003 | 57 | 0 | 0.0 | 0.0 | 0.00 | 0.53 | 0.00 | 96 | 1011.1 |
| 20260506225603 | 57 | 0 | 0.0 | 0.0 | 0.00 | 0.53 | 0.00 | 96 | 1011.0 |
| 20260506225203 | 57 | 0 | 0.0 | 0.0 | 0.00 | 0.53 | 0.00 | 96 | 1011.1 |
| 20260506224803 | 57 | 0 | 0.0 | 0.0 | 0.00 | 0.53 | 0.00 | 96 | 1011.0 |
| 20260506224403 | 57 | 0 | 0.0 | 0.0 | 0.00 | 0.53 | 0.00 | 96 | 1011.1 |
| 20260506224003 | 57 | 0 | 0.0 | 0.0 | 0.00 | 0.53 | 0.00 | 96 | 1011.1 |
| 20260506223603 | 58 | 284 | 0.0 | 2.0 | 0.00 | 0.53 | 0.00 | 96 | 1011.1 |
| 20260506223203 | 58 | 284 | 0.0 | 2.0 | 0.00 | 0.53 | 0.00 | 96 | 1011.1 |
| 20260506223013 | 58 | 284 | 0.0 | 2.0 | 0.00 | 0.53 | 0.00 | 96 | 1011.2 |
| 20260506222403 | 58 | 283 | 0.0 | 1.0 | 0.00 | 0.53 | 0.00 | 96 | 1011.1 |
| 20260506222003 | 58 | 283 | 0.0 | 1.0 | 0.00 | 0.53 | 0.00 | 96 | 1011.2 |
| 20260506221603 | 58 | 283 | 0.0 | 2.0 | 0.00 | 0.53 | 0.00 | 96 | 1011.1 |
| 20260506221203 | 57 | 283 | 0.0 | 2.0 | 0.00 | 0.53 | 0.00 | 96 | 1011.1 |
| 20260506220803 | 57 | 283 | 0.0 | 1.0 | 0.00 | 0.53 | 0.00 | 96 | 1010.9 |
| 20260506220403 | 57 | 0 | 0.0 | 0.0 | 0.00 | 0.53 | 0.00 | 96 | 1011.1 |
| 20260506220004 | 58 | 0 | 0.0 | 0.0 | 0.00 | 0.53 | 0.00 | 96 | 1011.1 |
| 20260506215603 | 58 | 0 | 0.0 | 0.0 | 0.00 | 0.53 | 0.53 | 96 | 1011.1 |
| 20260506215203 | 58 | 283 | 0.0 | 0.0 | 0.00 | 0.53 | 0.53 | 96 | 1011.1 |
| 20260506214803 | 58 | 283 | 0.0 | 1.0 | 0.00 | 0.53 | 0.53 | 96 | 1011.0 |
| 20260506214403 | 58 | 283 | 0.0 | 1.0 | 0.00 | 0.53 | 0.53 | 96 | 1011.0 |
| 20260506214003 | 58 | 284 | 0.0 | 2.0 | 0.00 | 0.53 | 0.53 | 95 | 1011.0 |
| 20260506213603 | 58 | 284 | 0.0 | 2.0 | 0.00 | 0.53 | 0.53 | 95 | 1010.9 |
| 20260506213203 | 58 | 285 | 0.0 | 2.0 | 0.00 | 0.53 | 0.53 | 95 | 1011.2 |
| 20260506212803 | 58 | 296 | 1.0 | 2.0 | 0.00 | 0.53 | 0.53 | 95 | 1010.8 |
| 20260506212403 | 58 | 302 | 1.0 | 2.0 | 0.00 | 0.53 | 0.53 | 95 | 1010.9 |
| 20260506212003 | 58 | 337 | 0.0 | 2.0 | 0.00 | 0.53 | 0.53 | 95 | 1010.9 |
| 20260506211817 | 58 | 1 | 0.0 | 1.0 | 0.00 | 0.53 | 0.53 | 95 | 1010.9 |
| 20260506211203 | 59 | 0 | 0.0 | 0.0 | 0.00 | 0.53 | 0.53 | 95 | 1010.9 |
| 20260506210803 | 59 | 0 | 0.0 | 0.0 | 0.00 | 0.53 | 0.53 | 95 | 1010.9 |
| 20260506210615 | 59 | 0 | 0.0 | 0.0 | 0.00 | 0.53 | 0.53 | 95 | 1010.8 |
| 20260506210214 | 59 | 0 | 0.0 | 0.0 | 0.00 | 0.53 | 0.53 | 95 | 1010.7 |
| 20260506205603 | 59 | 0 | 0.0 | 0.0 | 0.00 | 0.53 | 0.53 | 95 | 1010.8 |
| 20260506205203 | 59 | 0 | 0.0 | 0.0 | 0.00 | 0.53 | 0.53 | 95 | 1010.7 |
| 20260506204803 | 59 | 0 | 0.0 | 0.0 | 0.00 | 0.53 | 0.53 | 94 | 1010.7 |
| 20260506204403 | 59 | 0 | 0.0 | 0.0 | 0.00 | 0.53 | 0.53 | 94 | 1010.7 |
| 20260506204003 | 59 | 0 | 0.0 | 0.0 | 0.00 | 0.53 | 0.53 | 94 | 1010.7 |
| 20260506203816 | 59 | 0 | 0.0 | 0.0 | 0.00 | 0.53 | 0.53 | 94 | 1010.7 |
| 20260506203415 | 60 | 0 | 0.0 | 0.0 | 0.00 | 0.53 | 0.53 | 94 | 1010.7 |
| 20260506202803 | 60 | 0 | 0.0 | 0.0 | 0.00 | 0.53 | 0.53 | 93 | 1010.9 |
| 20260506202404 | 60 | 0 | 0.0 | 0.0 | 0.00 | 0.53 | 0.53 | 93 | 1010.7 |
| 20260506202003 | 60 | 0 | 0.0 | 0.0 | 0.00 | 0.53 | 0.53 | 93 | 1010.7 |
| 20260506201603 | 60 | 0 | 0.0 | 0.0 | 0.00 | 0.53 | 0.53 | 93 | 1010.6 |
| 20260506201203 | 60 | 0 | 0.0 | 0.0 | 0.00 | 0.53 | 0.53 | 93 | 1010.5 |
| 20260506200803 | 60 | 0 | 0.0 | 0.0 | 0.00 | 0.53 | 0.53 | 93 | 1010.6 |
| 20260506200403 | 61 | 0 | 0.0 | 0.0 | 0.00 | 0.53 | 0.53 | 93 | 1010.4 |
| 20260506200215 | 61 | 0 | 0.0 | 0.0 | 0.00 | 0.53 | 0.53 | 93 | 1010.6 |
| 20260506195603 | 61 | 6 | 0.0 | 2.0 | 0.00 | 0.53 | 0.53 | 93 | 1010.4 |
| 20260506195203 | 61 | 7 | 1.0 | 2.0 | 0.00 | 0.53 | 0.53 | 93 | 1010.5 |
| 20260506194803 | 61 | 7 | 1.0 | 2.0 | 0.00 | 0.53 | 0.53 | 93 | 1010.3 |
| 20260506194403 | 61 | 8 | 0.0 | 2.0 | 0.00 | 0.53 | 0.53 | 92 | 1010.3 |
| 20260506194003 | 61 | 7 | 0.0 | 1.0 | 0.00 | 0.53 | 0.53 | 92 | 1010.2 |
| 20260506193603 | 61 | 7 | 0.0 | 1.0 | 0.00 | 0.53 | 0.53 | 92 | 1010.2 |
| 20260506193203 | 61 | 7 | 0.0 | 1.0 | 0.00 | 0.53 | 0.53 | 92 | 1010.2 |
| 20260506192803 | 61 | 6 | 1.0 | 1.0 | 0.00 | 0.53 | 0.53 | 92 | 1010.1 |
| 20260506192403 | 61 | 2 | 1.0 | 3.0 | 0.00 | 0.53 | 0.53 | 92 | 1010.0 |
| 20260506192003 | 61 | 3 | 2.0 | 3.0 | 0.00 | 0.53 | 0.53 | 92 | 1010.1 |
| 20260506191814 | 62 | 3 | 2.0 | 3.0 | 0.00 | 0.53 | 0.53 | 92 | 1010.1 |
| 20260506191203 | 62 | 8 | 1.0 | 2.0 | 0.00 | 0.53 | 0.53 | 91 | 1010.1 |
| 20260506191017 | 62 | 6 | 1.0 | 3.0 | 0.00 | 0.53 | 0.53 | 91 | 1009.9 |
| 20260506190403 | 62 | 4 | 1.0 | 3.0 | 0.00 | 0.53 | 0.53 | 91 | 1009.9 |
| 20260506190004 | 62 | 6 | 1.0 | 2.0 | 0.00 | 0.53 | 0.53 | 91 | 1009.9 |
| 20260506185603 | 62 | 11 | 1.0 | 3.0 | 0.00 | 0.53 | 0.53 | 91 | 1009.7 |
| 20260506185203 | 62 | 14 | 2.0 | 3.0 | 0.00 | 0.53 | 0.53 | 90 | 1010.0 |
| 20260506184803 | 62 | 27 | 2.0 | 4.0 | 0.00 | 0.53 | 0.53 | 90 | 1009.8 |
| 20260506184403 | 62 | 34 | 2.0 | 4.0 | 0.00 | 0.53 | 0.53 | 90 | 1009.8 |
| 20260506184003 | 62 | 25 | 2.0 | 4.0 | 0.00 | 0.53 | 0.53 | 90 | 1009.7 |
| 20260506183603 | 63 | 20 | 2.0 | 4.0 | 0.00 | 0.53 | 0.53 | 90 | 1009.7 |
| 20260506183416 | 63 | 22 | 2.0 | 4.0 | 0.00 | 0.53 | 0.53 | 90 | 1009.6 |
| 20260506182803 | 63 | 26 | 3.0 | 4.0 | 0.00 | 0.53 | 0.53 | 90 | 1009.7 |
| 20260506182403 | 63 | 22 | 2.0 | 4.0 | 0.00 | 0.53 | 0.53 | 90 | 1009.6 |
| 20260506182214 | 63 | 16 | 2.0 | 4.0 | 0.00 | 0.53 | 0.53 | 90 | 1009.5 |
| 20260506181603 | 63 | 11 | 1.0 | 3.0 | 0.00 | 0.53 | 0.53 | 90 | 1009.7 |
| 20260506181203 | 63 | 39 | 1.0 | 4.0 | 0.00 | 0.53 | 0.53 | 89 | 1009.5 |
| 20260506180803 | 63 | 61 | 2.0 | 5.0 | 0.00 | 0.53 | 0.53 | 89 | 1009.4 |
| 20260506180403 | 63 | 60 | 4.0 | 6.0 | 0.00 | 0.53 | 0.53 | 88 | 1009.4 |
| 20260506180216 | 63 | 60 | 4.0 | 7.0 | 0.00 | 0.53 | 0.53 | 88 | 1009.1 |
| 20260506175816 | 63 | 58 | 4.0 | 7.0 | 0.00 | 0.53 | 0.53 | 88 | 1009.0 |
| 20260506175415 | 63 | 56 | 3.0 | 7.0 | 0.00 | 0.53 | 0.53 | 88 | 1009.0 |
| 20260506174803 | 64 | 49 | 1.0 | 3.0 | 0.00 | 0.53 | 0.53 | 87 | 1009.3 |
| 20260506174403 | 64 | 41 | 1.0 | 2.0 | 0.00 | 0.53 | 0.53 | 87 | 1009.4 |
| 20260506174003 | 64 | 35 | 1.0 | 2.0 | 0.00 | 0.53 | 0.53 | 87 | 1009.4 |
| 20260506173603 | 64 | 18 | 1.0 | 2.0 | 0.00 | 0.53 | 0.53 | 87 | 1009.3 |
| 20260506173203 | 64 | 7 | 1.0 | 2.0 | 0.00 | 0.53 | 0.53 | 87 | 1009.3 |
| 20260506172803 | 64 | 1 | 1.0 | 3.0 | 0.00 | 0.53 | 0.53 | 88 | 1009.4 |
| 20260506172403 | 64 | 5 | 2.0 | 3.0 | 0.00 | 0.53 | 0.53 | 88 | 1009.5 |
| 20260506172003 | 64 | 12 | 2.0 | 3.0 | 0.00 | 0.53 | 0.53 | 88 | 1009.5 |
| 20260506171603 | 64 | 17 | 1.0 | 3.0 | 0.00 | 0.53 | 0.53 | 88 | 1009.3 |
| 20260506171203 | 64 | 6 | 1.0 | 2.0 | 0.00 | 0.53 | 0.53 | 88 | 1009.2 |
| 20260506171013 | 64 | 3 | 2.0 | 3.0 | 0.00 | 0.53 | 0.53 | 87 | 1009.1 |
| 20260506170403 | 64 | 2 | 2.0 | 4.0 | 0.00 | 0.53 | 0.53 | 87 | 1009.0 |
| 20260506170003 | 64 | 7 | 2.0 | 4.0 | 0.00 | 0.53 | 0.53 | 87 | 1009.3 |
| 20260506165816 | 64 | 9 | 2.0 | 4.0 | 0.00 | 0.53 | 0.53 | 87 | 1009.2 |
| 20260506165203 | 64 | 41 | 1.0 | 2.0 | 0.00 | 0.53 | 0.53 | 87 | 1009.0 |
| 20260506164804 | 64 | 51 | 1.0 | 2.0 | 0.00 | 0.53 | 0.53 | 86 | 1009.1 |
| 20260506164403 | 65 | 65 | 1.0 | 2.0 | 0.00 | 0.53 | 0.53 | 85 | 1009.1 |
| 20260506164214 | 65 | 69 | 1.0 | 2.0 | 0.00 | 0.53 | 0.53 | 85 | 1009.1 |
| 20260506163603 | 65 | 62 | 2.0 | 4.0 | 0.00 | 0.53 | 0.53 | 85 | 1009.0 |
| 20260506163203 | 65 | 53 | 2.0 | 4.0 | 0.00 | 0.53 | 0.53 | 85 | 1009.2 |
| 20260506162803 | 65 | 58 | 2.0 | 4.0 | 0.00 | 0.53 | 0.53 | 84 | 1009.2 |
| 20260506162403 | 65 | 67 | 2.0 | 4.0 | 0.00 | 0.53 | 0.53 | 84 | 1009.1 |
| 20260506162003 | 65 | 77 | 2.0 | 4.0 | 0.00 | 0.53 | 0.53 | 83 | 1009.0 |
| 20260506161603 | 65 | 75 | 2.0 | 3.0 | 0.00 | 0.53 | 0.53 | 83 | 1009.2 |
| 20260506161414 | 65 | 78 | 2.0 | 3.0 | 0.00 | 0.53 | 0.53 | 83 | 1009.2 |
| 20260506160803 | 65 | 62 | 2.0 | 4.0 | 0.00 | 0.53 | 0.53 | 82 | 1009.5 |
| 20260506160403 | 65 | 67 | 2.0 | 6.0 | 0.00 | 0.53 | 0.53 | 81 | 1009.6 |
| 20260506160212 | 65 | 72 | 2.0 | 6.0 | 0.00 | 0.53 | 0.53 | 81 | 1009.4 |
| 20260506155603 | 65 | 95 | 2.0 | 6.0 | 0.00 | 0.53 | 0.53 | 81 | 1009.3 |
| 20260506155203 | 66 | 88 | 3.0 | 6.0 | 0.00 | 0.53 | 0.53 | 82 | 1009.3 |
| 20260506154803 | 65 | 83 | 3.0 | 6.0 | 0.00 | 0.53 | 0.53 | 82 | 1009.3 |
| 20260506154615 | 65 | 76 | 3.0 | 6.0 | 0.00 | 0.53 | 0.53 | 83 | 1009.5 |
| 20260506154214 | 65 | 64 | 3.0 | 6.0 | 0.00 | 0.53 | 0.53 | 86 | 1009.4 |
| 20260506153603 | 65 | 58 | 3.0 | 6.0 | 0.00 | 0.53 | 0.53 | 86 | 1009.3 |
| 20260506153203 | 65 | 68 | 3.0 | 4.0 | 0.00 | 0.53 | 0.53 | 87 | 1009.4 |
| 20260506152803 | 64 | 76 | 3.0 | 4.0 | 0.00 | 0.53 | 0.53 | 86 | 1009.3 |
| 20260506152403 | 64 | 88 | 2.0 | 4.0 | 0.00 | 0.53 | 0.53 | 87 | 1009.3 |
| 20260506152003 | 64 | 95 | 2.0 | 6.0 | 0.00 | 0.53 | 0.53 | 88 | 1009.4 |
| 20260506151603 | 64 | 88 | 3.0 | 8.0 | 0.00 | 0.53 | 0.53 | 88 | 1009.2 |
| 20260506151203 | 64 | 83 | 4.0 | 8.0 | 0.00 | 0.53 | 0.53 | 89 | 1009.3 |
| 20260506150803 | 64 | 82 | 4.0 | 6.0 | 0.00 | 0.53 | 0.53 | 88 | 1009.4 |
| 20260506150403 | 64 | 81 | 4.0 | 6.0 | 0.00 | 0.53 | 0.53 | 88 | 1009.5 |
| 20260506150003 | 64 | 67 | 4.0 | 8.0 | 0.00 | 0.53 | 0.53 | 87 | 1009.6 |
| 20260506145603 | 64 | 53 | 4.0 | 8.0 | 0.00 | 0.53 | 0.53 | 86 | 1009.3 |
| 20260506145203 | 64 | 39 | 4.0 | 8.0 | 0.00 | 0.53 | 0.53 | 85 | 1009.4 |
| 20260506144803 | 64 | 33 | 3.0 | 7.0 | 0.00 | 0.53 | 0.53 | 86 | 1009.3 |
| 20260506144403 | 64 | 40 | 3.0 | 7.0 | 0.00 | 0.53 | 0.53 | 86 | 1009.4 |
| 20260506144003 | 64 | 49 | 3.0 | 7.0 | 0.00 | 0.53 | 0.53 | 86 | 1009.5 |
| 20260506143814 | 64 | 51 | 3.0 | 7.0 | 0.00 | 0.53 | 0.53 | 86 | 1009.4 |
| 20260506143203 | 63 | 50 | 3.0 | 6.0 | 0.00 | 0.53 | 0.53 | 86 | 1009.7 |
| 20260506142803 | 63 | 51 | 3.0 | 6.0 | 0.00 | 0.53 | 0.53 | 88 | 1009.6 |
| 20260506142403 | 64 | 56 | 4.0 | 8.0 | 0.00 | 0.53 | 0.53 | 88 | 1009.5 |
| 20260506142004 | 64 | 48 | 3.0 | 8.0 | 0.00 | 0.53 | 0.53 | 90 | 1009.4 |
| 20260506141603 | 64 | 48 | 4.0 | 8.0 | 0.00 | 0.53 | 0.53 | 90 | 1009.4 |
| 20260506141203 | 63 | 50 | 4.0 | 6.0 | 0.00 | 0.53 | 0.53 | 91 | 1009.4 |
| 20260506140803 | 63 | 51 | 4.0 | 7.0 | 0.00 | 0.53 | 0.53 | 90 | 1009.5 |
| 20260506140403 | 63 | 51 | 4.0 | 7.0 | 0.00 | 0.53 | 0.53 | 91 | 1009.5 |
| 20260506140004 | 63 | 51 | 4.0 | 6.0 | 0.00 | 0.53 | 0.53 | 92 | 1009.5 |
| 20260506135603 | 63 | 47 | 4.0 | 8.0 | 0.03 | 0.53 | 0.53 | 92 | 1009.6 |
| 20260506135203 | 63 | 37 | 5.0 | 8.0 | 0.07 | 0.53 | 0.53 | 92 | 1009.6 |
| 20260506134803 | 63 | 34 | 5.0 | 7.0 | 0.14 | 0.53 | 0.53 | 92 | 1009.4 |
| 20260506134616 | 63 | 35 | 5.0 | 7.0 | 0.19 | 0.53 | 0.53 | 92 | 1009.4 |
| 20260506134003 | 62 | 48 | 5.0 | 7.0 | 0.29 | 0.53 | 0.53 | 93 | 1009.6 |
| 20260506133603 | 62 | 47 | 5.0 | 9.0 | 0.31 | 0.53 | 0.53 | 92 | 1009.5 |
| 20260506133203 | 62 | 42 | 5.0 | 9.0 | 0.35 | 0.53 | 0.53 | 93 | 1009.5 |
| 20260506132803 | 62 | 44 | 5.0 | 8.0 | 0.36 | 0.53 | 0.53 | 93 | 1009.7 |
| 20260506132403 | 62 | 45 | 5.0 | 8.0 | 0.36 | 0.53 | 0.53 | 93 | 1009.7 |
| 20260506132003 | 62 | 45 | 6.0 | 8.0 | 0.37 | 0.53 | 0.53 | 93 | 1009.9 |
| 20260506131603 | 62 | 44 | 6.0 | 11.0 | 0.37 | 0.53 | 0.53 | 93 | 1010.0 |
| 20260506131203 | 62 | 45 | 6.0 | 11.0 | 0.37 | 0.53 | 0.53 | 93 | 1009.9 |
| 20260506130803 | 62 | 46 | 5.0 | 9.0 | 0.37 | 0.53 | 0.53 | 93 | 1009.8 |
| 20260506130615 | 62 | 43 | 4.0 | 9.0 | 0.37 | 0.53 | 0.53 | 94 | 1009.8 |
| 20260506130004 | 62 | 50 | 4.0 | 7.0 | 0.37 | 0.53 | 0.53 | 93 | 1009.7 |
| 20260506125603 | 62 | 49 | 4.0 | 7.0 | 0.34 | 0.50 | 0.50 | 92 | 1009.9 |
| 20260506125413 | 62 | 52 | 3.0 | 6.0 | 0.33 | 0.49 | 0.49 | 92 | 1009.9 |
| 20260506124803 | 62 | 10 | 0.0 | 3.0 | 0.23 | 0.39 | 0.39 | 91 | 1010.1 |
| 20260506124403 | 63 | 35 | 1.0 | 3.0 | 0.14 | 0.30 | 0.30 | 91 | 1010.2 |
| 20260506124003 | 63 | 46 | 1.0 | 3.0 | 0.08 | 0.24 | 0.24 | 90 | 1010.1 |
| 20260506123816 | 63 | 49 | 1.0 | 3.0 | 0.07 | 0.23 | 0.23 | 90 | 1010.1 |
| 20260506123203 | 63 | 50 | 2.0 | 4.0 | 0.02 | 0.18 | 0.18 | 89 | 1010.1 |
| 20260506122803 | 63 | 45 | 3.0 | 5.0 | 0.01 | 0.17 | 0.17 | 89 | 1010.0 |